Voltar ao catálogo

FENGYUN 1C DEB

AtivoSSO
NORAD 30996·DEBRIS·🇨🇳 China

Lançado May 10, 1999 de Taiyuan Satellite Launch Center

Loading…

Próximas Passagens (próximas 24 horas)

TLE

AtualizadoSource: Space-Track

Época: Sep 13, 2026, 17:31 UTC

1 30996U 99025BCN 26256.73047392  .00001215  00000-0  42427-3 0  9999
2 30996  98.9342 176.8577 0048324 201.9799 221.6190 14.36533207 15082

Acompanhe FENGYUN 1C DEB em tempo real com AllMySat

Download on the App Store